654  
ASUS42 KRAH 051310  
RWRRAH  
NORTH CAROLINA WEATHER ROUNDUP  
NATIONAL WEATHER SERVICE RALEIGH NC  
800 AM EST SUN DEC 05 2021  
 
NOTE: "FAIR" INDICATES FEW OR NO CLOUDS BELOW 12,000 FEET WITH NO  
SIGNIFICANT WEATHER AND/OR S TO VISIBILITY
.  
 
NCZ001-053-055-056-065-067-051400-  
WESTERN NORTH CAROLINA  
 
CITY SKY/WX TMP DP RH WIND PRES REMARKS
 
ASHEVILLE CLEAR 37 37 100 CALM 30.23S  
JEFFERSON CLOUDY 45 36 72 CALM 30.26S  
MORGANTON CLOUDY 53 46 77 CALM 30.29R  
HICKORY MOCLDY 47 43 86 NE3 30.26R  
WILKESBORO NOT AVBL  
RUTHERFORDTON CLEAR 50 45 81 N3 30.25R  
MOUNT AIRY N/A 51 37 59 E9 30.31R  
BOONE NOT AVBL  

 
 
NCZ021-022-025-041-071-084-088-051400-  
CENTRAL NORTH CAROLINA  
 
CITY SKY/WX TMP DP RH WIND PRES REMARKS
 
CHARLOTTE PTCLDY 49 43 80 N7 30.25R  
GREENSBORO MOCLDY 46 40 79 NE9 30.28R  
WINSTON-SALEM CLOUDY 49 39 68 NE9 30.29R  
RALEIGH-DURHAM PTCLDY 44 42 93 CALM 30.28R  
FORT BRAGG PTCLDY 47 43 85 NE6 30.23R  
FAYETTEVILLE PTCLDY 46 44 93 N7 30.23R  
BURLINGTON CLEAR 43 40 89 N5 30.29R  
ROXBORO PTCLDY 41 41 100 NE3 30.32R  
HENDERSON PTCLDY 40 40 99 NE5 30.30R  
LOUISBURG PTCLDY 43 43 100 NE7 30.31S  
LAURINBURG PTCLDY 51 45 79 E9 30.23R  

 
 
NCZ011-015-027-028-043-044-047-080-103-051400-  
NORTHEASTERN NORTH CAROLINA  
 
CITY SKY/WX TMP DP RH WIND PRES REMARKS
 
ROCKY MT-WILSO NOT AVBL  
GREENVILLE CLEAR 46 46 100 NE8 30.29R  
WASHINGTON PTCLDY 48 46 91 NE7 30.29R  
ELIZABETH CITY PTCLDY 50 48 93 NE6 30.30R  
MANTEO PTCLDY 56 45 65 NE14 30.29R  
CAPE HATTERAS MOSUNNY 61 54 77 NE9 30.24R  

 
 
NCZ078-087-090-091-093-098-101-051400-  
SOUTHEASTERN NORTH CAROLINA  
 
CITY SKY/WX TMP DP RH WIND PRES REMARKS
 
GOLDSBORO PTCLDY 47 43 87 NE8 30.24R  
KINSTON CLEAR 48 46 93 NE8 30.27R  
KENANSVILLE PTCLDY 46 45 93 MISG 30.25S  
NEW BERN PTCLDY 51 49 92 NE6 30.26R  
CHERRY POINT NOT AVBL  
BEAUFORT PTCLDY 54 51 90 NE9 30.22S  
JACKSONVILLE PTCLDY 50 48 93 NE6 30.23S  
WILMINGTON PTCLDY 51 49 92 NE3 30.21R  

 
 
 
 
CLICK HERE TO GO TO PREVIOUS BULLETINS.

The Nexlab NC Page Main Text Page